• En España
  • Lista de países
  • Para 7 días
  • Temperatura del agua
  • Mapa Satelital
  • El tiempo en el mapa
  • Informadores
  • user-avatar
    Iniciar sesión

    Tiempo cada hora Sidi Bu-l-Abbas

    Hoy, 17 Octubre, Miércoles

    Tiempo Temperatura Precipitaciones Viento Presión Humedad
    00:00 +17°C° 0.3 mm 4 mps 719 mmHg 79%
    01:00 +17°C° 0.4 mm 4 mps 719 mmHg 80%
    02:00 +17°C° 0.4 mm 4 mps 719 mmHg 81%
    03:00 +17°C° 0.4 mm 4 mps 719 mmHg 82%
    04:00 +17°C° 0.2 mm 4 mps 719 mmHg 82%
    05:00 +16°C° 0.2 mm 3 mps 719 mmHg 83%
    06:00 +16°C° 0.2 mm 3 mps 719 mmHg 83%
    07:00 +17°C° 0.1 mm 3 mps 719 mmHg 79%
    08:00 +17°C° 0.1 mm 3 mps 719 mmHg 74%
    09:00 +18°C° 0.1 mm 3 mps 720 mmHg 70%
    10:00 +19°C° 0.2 mm 3 mps 720 mmHg 67%
    11:00 +19°C° 0.2 mm 4 mps 720 mmHg 63%
    12:00 +20°C° 0.2 mm 4 mps 720 mmHg 60%
    13:00 +20°C° 0.2 mm 5 mps 719 mmHg 61%
    14:00 +20°C° 0.2 mm 5 mps 719 mmHg 62%
    15:00 +20°C° 0.2 mm 5 mps 719 mmHg 64%
    16:00 +20°C° 0.1 mm 5 mps 719 mmHg 67%
    17:00 +19°C° 0.1 mm 4 mps 718 mmHg 70%
    18:00 +19°C° 0.1 mm 3 mps 718 mmHg 73%
    19:00 +18°C° 0 mm 2 mps 718 mmHg 74%
    20:00 +18°C° 0 mm 2 mps 719 mmHg 76%
    21:00 +19°C° 0 mm 1 mps 719 mmHg 78%
    22:00 +18°C° 0 mm 1 mps 718 mmHg 78%
    23:00 +18°C° 0 mm 1 mps 718 mmHg 79%

    Mañana, 18 Octubre, Jueves

    Tiempo Temperatura Precipitaciones Viento Presión Humedad
    00:00 +18°C° 0 mm 1 mps 718 mmHg 79%
    01:00 +18°C° 0 mm 1 mps 717 mmHg 79%
    02:00 +16°C° 0 mm 1 mps 717 mmHg 78%
    03:00 +16°C° 0 mm 1 mps 716 mmHg 78%
    04:00 +16°C° 0 mm 1 mps 716 mmHg 77%
    05:00 +16°C° 0 mm 1 mps 716 mmHg 75%
    06:00 +16°C° 0 mm 1 mps 715 mmHg 74%
    07:00 +18°C° 0 mm 1 mps 715 mmHg 68%
    08:00 +19°C° 0 mm 1 mps 716 mmHg 61%
    09:00 +20°C° 0 mm 1 mps 716 mmHg 55%
    10:00 +21°C° 0 mm 1 mps 715 mmHg 51%
    11:00 +21°C° 0 mm 2 mps 715 mmHg 47%
    12:00 +23°C° 0 mm 2 mps 715 mmHg 43%
    13:00 +24°C° 0 mm 2 mps 715 mmHg 43%
    14:00 +24°C° 0 mm 3 mps 714 mmHg 43%
    15:00 +24°C° 0 mm 3 mps 714 mmHg 42%
    16:00 +22°C° 0.8 mm 4 mps 714 mmHg 51%
    17:00 +20°C° 0.8 mm 5 mps 714 mmHg 60%
    18:00 +19°C° 0.8 mm 6 mps 714 mmHg 69%
    19:00 +17°C° 0.2 mm 5 mps 715 mmHg 70%
    20:00 +17°C° 0.2 mm 5 mps 715 mmHg 71%
    21:00 +17°C° 0.2 mm 4 mps 715 mmHg 71%
    22:00 +17°C° 0.4 mm 4 mps 715 mmHg 72%
    23:00 +15°C° 0.4 mm 4 mps 716 mmHg 72%

    Pasado mañana, 19 Octubre, Viernes

    Tiempo Temperatura Precipitaciones Viento Presión Humedad
    00:00 +15°C° 0.4 mm 4 mps 716 mmHg 73%
    01:00 +14°C° 0.8 mm 4 mps 715 mmHg 74%
    02:00 +14°C° 0.8 mm 3 mps 715 mmHg 76%
    03:00 +14°C° 0.8 mm 3 mps 715 mmHg 77%
    04:00 +14°C° 0.3 mm 3 mps 715 mmHg 77%
    05:00 +15°C° 0.3 mm 2 mps 715 mmHg 76%
    06:00 +15°C° 0.3 mm 2 mps 715 mmHg 76%
    07:00 +16°C° 0 mm 1 mps 716 mmHg 73%
    08:00 +16°C° 0 mm 1 mps 716 mmHg 71%
    09:00 +18°C° 0 mm 1 mps 716 mmHg 68%
    10:00 +19°C° 0 mm 1 mps 716 mmHg 64%
    11:00 +20°C° 0 mm 1 mps 717 mmHg 59%
    12:00 +21°C° 0 mm 1 mps 717 mmHg 55%
    13:00 +21°C° 0.1 mm 2 mps 716 mmHg 55%
    14:00 +21°C° 0.1 mm 3 mps 716 mmHg 54%
    15:00 +21°C° 0.1 mm 4 mps 716 mmHg 54%
    16:00 +20°C° 0.6 mm 3 mps 716 mmHg 60%
    17:00 +19°C° 0.6 mm 3 mps 716 mmHg 67%
    18:00 +18°C° 0.6 mm 3 mps 716 mmHg 73%
    19:00 +18°C° 0.7 mm 3 mps 717 mmHg 76%
    20:00 +17°C° 0.7 mm 3 mps 717 mmHg 79%
    21:00 +17°C° 0.7 mm 2 mps 718 mmHg 82%
    22:00 +17°C° 0.2 mm 2 mps 717 mmHg 82%
    23:00 +17°C° 0.2 mm 3 mps 717 mmHg 82%

    20 Octubre, Sábado

    Tiempo Temperatura Precipitaciones Viento Presión Humedad
    00:00 +17°C° 0.2 mm 3 mps 717 mmHg 83%
    01:00 +17°C° 0.1 mm 2 mps 717 mmHg 84%
    02:00 +18°C° 0.1 mm 2 mps 717 mmHg 84%
    03:00 +18°C° 0.1 mm 2 mps 717 mmHg 85%
    04:00 +18°C° 0 mm 2 mps 717 mmHg 84%
    05:00 +18°C° 0 mm 2 mps 717 mmHg 84%
    06:00 +18°C° 0 mm 2 mps 717 mmHg 84%
    07:00 +19°C° 0 mm 3 mps 718 mmHg 73%
    08:00 +21°C° 0 mm 4 mps 718 mmHg 63%
    09:00 +22°C° 0 mm 5 mps 718 mmHg 52%
    10:00 +25°C° 0 mm 5 mps 718 mmHg 46%
    11:00 +26°C° 0 mm 5 mps 718 mmHg 40%
    12:00 +28°C° 0 mm 6 mps 718 mmHg 34%
    13:00 +27°C° 0.1 mm 6 mps 718 mmHg 41%
    14:00 +26°C° 0.1 mm 5 mps 718 mmHg 47%
    15:00 +25°C° 0.1 mm 5 mps 717 mmHg 54%
    16:00 +23°C° 0.1 mm 5 mps 717 mmHg 61%
    17:00 +21°C° 0.1 mm 4 mps 717 mmHg 67%
    18:00 +20°C° 0.1 mm 3 mps 718 mmHg 74%
    19:00 +20°C° 0 mm 3 mps 718 mmHg 75%
    20:00 +19°C° 0 mm 3 mps 718 mmHg 77%
    21:00 +19°C° 0 mm 2 mps 718 mmHg 78%
    22:00 +19°C° 0 mm 2 mps 718 mmHg 78%
    23:00 +19°C° 0 mm 2 mps 718 mmHg 78%

    21 Octubre, Domingo

    Tiempo Temperatura Precipitaciones Viento Presión Humedad
    00:00 +18°C° 0 mm 2 mps 718 mmHg 78%
    01:00 +18°C° 0 mm 2 mps 719 mmHg 79%
    02:00 +18°C° 0 mm 2 mps 719 mmHg 81%
    03:00 +18°C° 0 mm 1 mps 719 mmHg 82%
    04:00 +18°C° 0 mm 1 mps 719 mmHg 82%
    05:00 +18°C° 0 mm 1 mps 719 mmHg 82%
    06:00 +18°C° 0 mm 1 mps 719 mmHg 83%
    07:00 +19°C° 0 mm 1 mps 719 mmHg 75%
    08:00 +20°C° 0 mm 1 mps 720 mmHg 67%
    09:00 +21°C° 0 mm 1 mps 720 mmHg 60%
    10:00 +21°C° 0 mm 2 mps 720 mmHg 55%
    11:00 +23°C° 0 mm 2 mps 721 mmHg 51%
    12:00 +24°C° 0 mm 2 mps 721 mmHg 46%
    13:00 +24°C° 0 mm 3 mps 720 mmHg 46%
    14:00 +24°C° 0 mm 3 mps 720 mmHg 47%
    15:00 +24°C° 0 mm 3 mps 720 mmHg 47%
    16:00 +22°C° 0 mm 3 mps 720 mmHg 52%
    17:00 +22°C° 0 mm 3 mps 720 mmHg 57%
    18:00 +21°C° 0 mm 2 mps 720 mmHg 62%
    19:00 +20°C° 0 mm 2 mps 721 mmHg 64%
    20:00 +21°C° 0 mm 1 mps 721 mmHg 67%
    21:00 +20°C° 0 mm 1 mps 721 mmHg 69%
    22:00 +20°C° 0 mm 1 mps 721 mmHg 71%
    23:00 +18°C° 0 mm 0 mps 721 mmHg 72%

    22 Octubre, Lunes

    Tiempo Temperatura Precipitaciones Viento Presión Humedad
    00:00 +17°C° 0 mm 0 mps 721 mmHg 73%
    01:00 +17°C° 0 mm 0 mps 721 mmHg 74%
    02:00 +17°C° 0 mm 0 mps 721 mmHg 75%
    03:00 +18°C° 0 mm 1 mps 721 mmHg 76%
    04:00 +18°C° 0 mm 1 mps 721 mmHg 76%
    05:00 +18°C° 0 mm 1 mps 721 mmHg 77%
    06:00 +18°C° 0 mm 1 mps 721 mmHg 77%
    07:00 +19°C° 0 mm 1 mps 721 mmHg 70%
    08:00 +20°C° 0 mm 1 mps 722 mmHg 64%
    09:00 +22°C° 0 mm 1 mps 722 mmHg 57%
    10:00 +23°C° 0 mm 1 mps 722 mmHg 52%
    11:00 +24°C° 0 mm 2 mps 722 mmHg 47%
    12:00 +25°C° 0 mm 2 mps 722 mmHg 42%
    13:00 +25°C° 0 mm 3 mps 722 mmHg 42%
    14:00 +26°C° 0 mm 3 mps 722 mmHg 41%
    15:00 +26°C° 0 mm 4 mps 721 mmHg 41%
    16:00 +25°C° 0 mm 4 mps 721 mmHg 45%
    17:00 +23°C° 0 mm 4 mps 722 mmHg 49%
    18:00 +22°C° 0 mm 4 mps 722 mmHg 54%
    19:00 +21°C° 0 mm 3 mps 722 mmHg 57%
    20:00 +21°C° 0 mm 3 mps 722 mmHg 60%
    21:00 +20°C° 0 mm 2 mps 723 mmHg 63%
    22:00 +20°C° 0 mm 2 mps 722 mmHg 64%
    23:00 +19°C° 0 mm 2 mps 722 mmHg 66%
    Mostrar más